Location: Branche des Alpilles
(43.6087°N, 4.6976°E)
Time: 05:04:08
(UTC+00:00)

Cosmos 546 - Pass Details

Date: 30 November 2020
Orbit: 494 x 514 km, 50.6° (Epoch: 27 January)

Event Time Altitude Azimuth Distance (km) Brightness Sun altitude
Rises 17:57:59 0° 237° (WSW) 2,564 9.5 -19.7°
Reaches altitude 10° 18:00:09 10° 237° (WSW) 1,686 8.3 -20.1°
Maximum altitude 18:03:58 87° 148° (SSE) 501 4.5 -20.8°
Enters shadow 18:04:14 77° 73° (ENE) 513 4.4 -20.8°
